Starlink 5653

operational
NORAD ID: 55345 Int'l Des: 2023-013 Owner: SPXS Country: US Constellation: starlink
LEOCIRCULAR

关于 Starlink 5653

正在加载描述...

实时位置

正在加载3D地球...

即将过境

高度历史

Altitude vs Time

uPlot chart will show altitude changes over time

两行轨道根数

1 55345U 23013Q 26033.29123343 .00000663 00000-0 64147-4 0 9993
2 55345 43.0028 119.7315 0001125 261.1591 98.9124 15.02538411166536
Epoch: Feb 2, 2026 • Age: 22 hours

当前状态

高度 570.9 km
速度 7.58 km/s
星下点 -41.21°S, 157.57°E
发射日期 Jan 26, 2023
运行时间 3 years
类型 internet

技术详情

分类 Payload
质量 305.00 kg
干质量 290.00 kg
总质量 305.00 kg
长度 0.20 m
直径 2.80 m
跨度 9.00 m
形状 Box + pan
制造商 SPXS
平台类型 Starlink
阶段状态 In Orbit
所有者/国家 SPXS/US

大型星座

Loading constellations...